Time,TemperatureF,DewpointF,PressureIn,WindDirection,WindDirectionDegrees,WindSpeedMPH,WindSpeedGustMPH,Humidity,HourlyPrecipIn,Conditions,Clouds,dailyrainin,SoftwareType,DateUTC
2013-09-01 00:02:00,60.7,59.3,29.71,East,95,0.0,0.0,95,0.00,RA,,0.00,WeatherDisplay:10.37,2013-09-01 05:02:00,
2013-09-01 00:07:00,60.7,59.3,29.70,East,95,0.0,0.0,95,0.00,RA,,0.00,WeatherDisplay:10.37,2013-09-01 05:07:00,
2013-09-01 00:12:00,60.5,59.1,29.70,East,95,0.0,0.0,95,0.00,,,0.00,WeatherDisplay:10.37,2013-09-01 05:12:00,
2013-09-01 00:17:00,60.2,58.8,29.70,East,95,0.0,0.0,95,0.00,,,0.00,WeatherDisplay:10.37,2013-09-01 05:17:00,
2013-09-01 00:22:00,60.2,58.8,29.71,East,95,0.0,0.0,95,0.00,,,0.00,WeatherDisplay:10.37,2013-09-01 05:22:00,
2013-09-01 00:27:00,60.1,58.7,29.72,East,95,0.0,0.0,95,0.00,,,0.00,WeatherDisplay:10.37,2013-09-01 05:27:00,
2013-09-01 00:32:00,59.9,58.5,29.72,East,95,0.0,0.0,95,0.00,,,0.00,WeatherDisplay:10.37,2013-09-01 05:32:00,
2013-09-01 00:37:00,59.9,58.5,29.71,East,95,0.0,0.0,95,0.00,,,0.00,WeatherDisplay:10.37,2013-09-01 05:37:00,
2013-09-01 00:42:00,59.9,58.5,29.71,East,95,0.0,0.0,95,0.00,,,0.00,WeatherDisplay:10.37,2013-09-01 05:42:00,
2013-09-01 00:47:00,59.8,58.4,29.71,East,95,0.0,0.0,95,0.00,,,0.00,WeatherDisplay:10.37,2013-09-01 05:47:00,
2013-09-01 00:52:00,59.8,58.4,29.71,East,95,0.0,0.0,95,0.00,,,0.00,WeatherDisplay:10.37,2013-09-01 05:52:00,
2013-09-01 00:57:00,59.9,58.5,29.72,East,95,0.0,0.0,95,0.00,,,0.00,WeatherDisplay:10.37,2013-09-01 05:57:00,
2013-09-01 01:19:00,60.7,59.6,29.70,East,95,0.0,0.0,96,0.00,,,0.00,WeatherDisplay:10.37,2013-09-01 06:19:00,
2013-09-01 01:24:00,61.3,60.2,29.70,East,95,0.0,0.0,96,0.00,,,0.00,WeatherDisplay:10.37,2013-09-01 06:24:00,
2013-09-01 01:29:00,61.5,60.3,29.70,East,95,0.0,0.0,96,0.00,,,0.00,WeatherDisplay:10.37,2013-09-01 06:29:00,
2013-09-01 01:34:00,61.5,60.3,29.70,East,95,0.0,0.0,96,0.00,,,0.00,WeatherDisplay:10.37,2013-09-01 06:34:00,
2013-09-01 01:39:00,61.5,60.3,29.70,East,95,0.0,0.0,96,0.00,,,0.00,WeatherDisplay:10.37,2013-09-01 06:39:00,
2013-09-01 01:44:00,61.8,60.6,29.71,West,273,0.8,2.0,96,0.00,,,0.00,WeatherDisplay:10.37,2013-09-01 06:44:00,
2013-09-01 01:49:00,62.0,60.8,29.71,West,270,1.1,2.3,96,0.00,,,0.00,WeatherDisplay:10.37,2013-09-01 06:49:00,
2013-09-01 01:54:00,62.1,60.9,29.71,West,270,0.0,1.2,96,0.00,,,0.00,WeatherDisplay:10.37,2013-09-01 06:54:00,
2013-09-01 01:59:00,62.7,61.8,29.71,West,270,0.0,0.0,97,0.00,,,0.00,WeatherDisplay:10.37,2013-09-01 06:59:00,
2013-09-01 02:08:00,62.4,61.2,29.71,West,270,0.0,0.0,96,0.00,CLR,,0.00,WeatherDisplay:10.37,2013-09-01 07:08:00,
2013-09-01 02:13:00,62.4,61.2,29.69,West,270,0.0,0.0,96,0.00,,,0.00,WeatherDisplay:10.37,2013-09-01 07:13:00,
2013-09-01 02:18:00,62.6,61.7,29.69,West,270,0.0,0.0,97,0.00,,,0.00,WeatherDisplay:10.37,2013-09-01 07:18:00,
2013-09-01 02:23:00,62.7,61.8,29.68,West,270,0.0,0.0,97,0.00,,,0.00,WeatherDisplay:10.37,2013-09-01 07:23:00,
2013-09-01 02:28:00,62.9,62.0,29.68,West,270,0.4,2.3,97,0.00,,,0.00,WeatherDisplay:10.37,2013-09-01 07:28:00,
2013-09-01 02:33:00,63.2,62.3,29.68,West,270,0.0,0.0,97,0.00,,,0.00,WeatherDisplay:10.37,2013-09-01 07:33:00,
2013-09-01 02:38:00,63.7,62.8,29.68,West,266,0.2,0.0,97,0.00,,,0.00,WeatherDisplay:10.37,2013-09-01 07:38:00,
2013-09-01 02:43:00,63.5,62.6,29.69,West,266,0.0,0.0,97,0.00,,,0.00,WeatherDisplay:10.37,2013-09-01 07:43:00,
2013-09-01 02:48:00,63.4,62.5,29.68,West,266,0.0,0.0,97,0.00,,,0.00,WeatherDisplay:10.37,2013-09-01 07:48:00,
2013-09-01 02:53:00,63.4,62.5,29.68,West,266,0.0,1.2,97,0.00,,,0.00,WeatherDisplay:10.37,2013-09-01 07:53:00,
2013-09-01 02:58:00,63.5,62.6,29.68,West,266,0.1,0.0,97,0.00,,,0.00,WeatherDisplay:10.37,2013-09-01 07:58:00,
2013-09-01 03:00:00,67.9,65.8,29.69,West,265,3.0,7.0,93,0.00,CLR,,0.00,WeatherDisplay:10.37,2013-09-01 08:00:00,
2013-09-01 03:03:00,63.5,62.6,29.67,SE,128,0.0,1.2,97,0.00,,,0.00,WeatherDisplay:10.37,2013-09-01 08:03:00,
2013-09-01 03:08:00,63.7,62.8,29.67,SE,128,0.2,1.0,97,0.00,,,0.00,WeatherDisplay:10.37,2013-09-01 08:08:00,
2013-09-01 03:13:00,64.0,63.1,29.67,SE,128,0.0,1.2,97,0.00,,,0.00,WeatherDisplay:10.37,2013-09-01 08:13:00,
2013-09-01 03:18:00,63.7,62.8,29.67,SE,128,0.1,0.0,97,0.00,,,0.00,WeatherDisplay:10.37,2013-09-01 08:18:00,
2013-09-01 03:23:00,63.7,62.8,29.67,SE,128,0.0,0.0,97,0.00,,,0.00,WeatherDisplay:10.37,2013-09-01 08:23:00,
2013-09-01 03:28:00,63.7,62.8,29.67,SE,128,0.0,1.2,97,0.00,,,0.00,WeatherDisplay:10.37,2013-09-01 08:28:00,
2013-09-01 03:33:00,63.7,62.8,29.67,SE,128,0.0,0.0,97,0.00,,,0.00,WeatherDisplay:10.37,2013-09-01 08:33:00,
2013-09-01 03:38:00,63.7,62.8,29.67,SE,128,0.0,1.2,97,0.00,,,0.00,WeatherDisplay:10.37,2013-09-01 08:38:00,
2013-09-01 03:43:00,64.2,63.3,29.67,SE,128,0.0,0.0,97,0.00,,,0.00,WeatherDisplay:10.37,2013-09-01 08:43:00,
2013-09-01 03:48:00,64.2,63.3,29.67,SE,128,0.0,0.0,97,0.00,,,0.00,WeatherDisplay:10.37,2013-09-01 08:48:00,
2013-09-01 03:53:00,64.0,63.1,29.68,SE,128,0.0,0.0,97,0.00,,,0.00,WeatherDisplay:10.37,2013-09-01 08:53:00,
2013-09-01 03:58:00,64.0,63.1,29.67,SE,128,0.0,0.0,97,0.00,,,0.00,WeatherDisplay:10.37,2013-09-01 08:58:00,
2013-09-01 04:03:00,64.0,63.1,29.67,SE,128,0.0,0.0,97,0.00,,,0.00,WeatherDisplay:10.37,2013-09-01 09:03:00,
2013-09-01 04:08:00,63.9,63.0,29.66,SE,128,0.0,0.0,97,0.00,,,0.00,WeatherDisplay:10.37,2013-09-01 09:08:00,
2013-09-01 04:13:00,63.9,63.0,29.66,SE,128,0.6,1.2,97,0.00,,,0.00,WeatherDisplay:10.37,2013-09-01 09:13:00,
2013-09-01 04:18:00,63.9,63.0,29.66,SE,128,0.1,3.5,97,0.00,,,0.00,WeatherDisplay:10.37,2013-09-01 09:18:00,
2013-09-01 04:23:00,63.9,63.0,29.66,SE,128,0.3,0.0,97,0.00,,,0.00,WeatherDisplay:10.37,2013-09-01 09:23:00,
2013-09-01 04:28:00,63.9,63.0,29.65,SE,128,0.4,2.3,97,0.00,,,0.00,WeatherDisplay:10.37,2013-09-01 09:28:00,
2013-09-01 04:33:00,63.9,63.0,29.67,SE,128,0.0,0.0,97,0.00,,,0.00,WeatherDisplay:10.37,2013-09-01 09:33:00,
2013-09-01 04:38:00,63.9,63.0,29.68,West,267,1.0,1.2,97,0.00,,,0.00,WeatherDisplay:10.37,2013-09-01 09:38:00,
2013-09-01 04:43:00,64.3,63.7,29.68,West,267,0.0,2.3,98,0.00,,,0.00,WeatherDisplay:10.37,2013-09-01 09:43:00,
2013-09-01 04:48:00,64.8,64.2,29.68,West,267,0.0,0.0,98,0.00,,,0.00,WeatherDisplay:10.37,2013-09-01 09:48:00,
2013-09-01 04:53:00,64.5,63.9,29.66,West,267,0.0,0.0,98,0.00,,,0.00,WeatherDisplay:10.37,2013-09-01 09:53:00,
2013-09-01 04:58:00,64.3,63.4,29.67,West,267,0.0,0.0,97,0.00,,,0.00,WeatherDisplay:10.37,2013-09-01 09:58:00,
2013-09-01 05:03:00,64.3,63.4,29.66,West,267,0.3,1.2,97,0.00,,,0.00,WeatherDisplay:10.37,2013-09-01 10:03:00,
2013-09-01 05:08:00,64.3,63.4,29.66,South,178,0.0,0.0,97,0.00,,,0.00,WeatherDisplay:10.37,2013-09-01 10:08:00,
2013-09-01 05:13:00,64.5,63.9,29.66,South,178,0.2,1.2,98,0.00,,,0.00,WeatherDisplay:10.37,2013-09-01 10:13:00,
2013-09-01 05:18:00,64.5,63.9,29.65,South,178,0.0,0.0,98,0.00,,,0.00,WeatherDisplay:10.37,2013-09-01 10:18:00,
2013-09-01 05:23:00,64.3,63.7,29.65,South,178,0.1,1.2,98,0.00,,,0.00,WeatherDisplay:10.37,2013-09-01 10:23:00,
2013-09-01 05:28:00,64.3,63.7,29.65,South,178,0.0,0.0,98,0.00,,,0.00,WeatherDisplay:10.37,2013-09-01 10:28:00,
2013-09-01 05:33:00,64.3,63.7,29.66,South,178,0.0,0.0,98,0.00,,,0.00,WeatherDisplay:10.37,2013-09-01 10:33:00,
2013-09-01 05:38:00,64.3,63.7,29.66,South,178,0.0,0.0,98,0.00,,,0.00,WeatherDisplay:10.37,2013-09-01 10:38:00,
2013-09-01 05:43:00,64.3,63.7,29.65,South,178,0.0,0.0,98,0.00,,,0.00,WeatherDisplay:10.37,2013-09-01 10:43:00,
2013-09-01 05:48:00,64.5,63.9,29.65,South,178,0.0,0.0,98,0.00,,,0.00,WeatherDisplay:10.37,2013-09-01 10:48:00,
2013-09-01 05:53:00,64.7,64.1,29.65,South,178,0.0,0.0,98,0.00,,,0.00,WeatherDisplay:10.37,2013-09-01 10:53:00,
2013-09-01 05:58:00,64.5,63.9,29.66,South,178,0.0,0.0,98,0.00,,,0.00,WeatherDisplay:10.37,2013-09-01 10:58:00,
2013-09-01 06:03:00,64.2,63.6,29.66,South,178,0.0,0.0,98,0.00,,,0.00,WeatherDisplay:10.37,2013-09-01 11:03:00,
2013-09-01 06:08:00,64.0,63.4,29.66,South,178,0.0,0.0,98,0.00,,,0.00,WeatherDisplay:10.37,2013-09-01 11:08:00,
2013-09-01 06:13:00,63.9,63.3,29.66,South,178,0.0,0.0,98,0.00,,,0.00,WeatherDisplay:10.37,2013-09-01 11:13:00,
2013-09-01 06:18:00,63.9,63.3,29.67,South,178,0.0,0.0,98,0.00,,,0.00,WeatherDisplay:10.37,2013-09-01 11:18:00,
2013-09-01 06:23:00,64.3,63.7,29.67,South,178,0.1,0.0,98,0.00,,,0.00,WeatherDisplay:10.37,2013-09-01 11:23:00,
2013-09-01 06:28:00,63.9,63.3,29.67,South,191,0.0,3.5,98,0.00,,,0.00,WeatherDisplay:10.37,2013-09-01 11:28:00,
2013-09-01 06:33:00,63.5,62.9,29.67,South,191,0.0,1.2,98,0.00,,,0.00,WeatherDisplay:10.37,2013-09-01 11:33:00,
2013-09-01 06:38:00,63.4,62.8,29.66,South,191,0.0,0.0,98,0.00,,,0.00,WeatherDisplay:10.37,2013-09-01 11:38:00,
2013-09-01 06:43:00,63.2,62.6,29.67,South,191,0.0,0.0,98,0.00,,,0.00,WeatherDisplay:10.37,2013-09-01 11:43:00,
2013-09-01 06:48:00,63.1,62.5,29.66,South,191,0.0,0.0,98,0.00,,,0.00,WeatherDisplay:10.37,2013-09-01 11:48:00,
2013-09-01 06:53:00,63.9,63.3,29.67,South,191,0.0,0.0,98,0.00,,,0.00,WeatherDisplay:10.37,2013-09-01 11:53:00,
2013-09-01 06:58:00,63.7,63.1,29.66,South,191,0.0,0.0,98,0.00,,,0.00,WeatherDisplay:10.37,2013-09-01 11:58:00,
2013-09-01 07:03:00,63.4,62.8,29.66,South,191,0.0,0.0,98,0.00,,,0.00,WeatherDisplay:10.37,2013-09-01 12:03:00,
2013-09-01 07:08:00,63.2,62.6,29.67,South,191,0.0,0.0,98,0.00,,,0.00,WeatherDisplay:10.37,2013-09-01 12:08:00,
2013-09-01 07:13:00,63.1,62.5,29.66,South,191,0.0,0.0,98,0.00,,,0.00,WeatherDisplay:10.37,2013-09-01 12:13:00,
2013-09-01 07:18:00,63.2,62.6,29.66,South,191,0.0,0.0,98,0.00,,,0.00,WeatherDisplay:10.37,2013-09-01 12:18:00,
2013-09-01 07:23:00,63.2,62.6,29.67,South,191,0.0,1.2,98,0.00,,,0.00,WeatherDisplay:10.37,2013-09-01 12:23:00,
2013-09-01 07:28:00,63.7,63.1,29.67,South,191,0.0,0.0,98,0.00,,,0.00,WeatherDisplay:10.37,2013-09-01 12:28:00,
2013-09-01 07:33:00,63.7,63.1,29.67,South,191,0.0,0.0,98,0.00,,,0.00,WeatherDisplay:10.37,2013-09-01 12:33:00,
2013-09-01 07:38:00,63.5,62.9,29.67,SSW,192,0.1,1.2,98,0.00,,,0.00,WeatherDisplay:10.37,2013-09-01 12:38:00,
2013-09-01 07:43:00,63.4,62.8,29.68,SSW,193,1.7,2.3,98,0.00,,,0.00,WeatherDisplay:10.37,2013-09-01 12:43:00,
2013-09-01 07:48:00,63.9,63.3,29.67,WSW,254,1.7,3.5,98,0.00,,,0.00,WeatherDisplay:10.37,2013-09-01 12:48:00,
2013-09-01 07:53:00,64.2,63.6,29.68,WSW,254,0.0,3.5,98,0.00,,,0.00,WeatherDisplay:10.37,2013-09-01 12:53:00,
2013-09-01 07:58:00,64.5,63.9,29.68,SSW,209,2.5,4.6,98,0.00,,,0.00,WeatherDisplay:10.37,2013-09-01 12:58:00,
2013-09-01 08:03:00,65.5,64.9,29.68,SW,230,0.2,3.5,98,0.00,,,0.00,WeatherDisplay:10.37,2013-09-01 13:03:00,
2013-09-01 08:08:00,65.5,64.9,29.67,SW,224,0.6,2.3,98,0.00,,,0.00,WeatherDisplay:10.37,2013-09-01 13:08:00,
2013-09-01 08:13:00,65.8,65.2,29.67,SW,216,0.4,3.5,98,0.00,,,0.00,WeatherDisplay:10.37,2013-09-01 13:13:00,
2013-09-01 08:18:00,65.8,65.2,29.67,SW,216,0.1,1.2,98,0.00,,,0.00,WeatherDisplay:10.37,2013-09-01 13:18:00,
2013-09-01 08:42:00,66.1,64.9,29.67,NW,317,1.7,1.7,96,0.00,,,0.00,WeatherDisplay:10.37,2013-09-01 13:42:00,
2013-09-01 09:22:00,68.6,65.5,29.69,South,185,3.2,5.0,90,0.00,,,0.00,WeatherDisplay:10.37,2013-09-01 14:22:00,
2013-09-01 09:35:00,69.8,65.4,29.69,South,174,1.4,3.0,86,0.00,,,0.00,WeatherDisplay:10.37,2013-09-01 14:35:00,
2013-09-01 09:40:00,69.6,64.9,29.68,SSW,199,0.8,5.8,85,0.00,,,0.00,WeatherDisplay:10.37,2013-09-01 14:40:00,
2013-09-01 09:45:00,70.1,65.7,29.68,SSW,204,2.1,3.5,86,0.00,,,0.00,WeatherDisplay:10.37,2013-09-01 14:45:00,
2013-09-01 09:50:00,70.6,65.9,29.67,SSW,210,1.1,1.2,85,0.00,,,0.00,WeatherDisplay:10.37,2013-09-01 14:50:00,
2013-09-01 09:55:00,71.6,66.2,29.67,South,180,2.5,3.5,83,0.00,,,0.00,WeatherDisplay:10.37,2013-09-01 14:55:00,
2013-09-01 10:00:00,72.0,65.8,29.67,SSW,192,1.9,4.6,81,0.00,,,0.00,WeatherDisplay:10.37,2013-09-01 15:00:00,
2013-09-01 10:05:00,71.6,66.2,29.67,SW,234,1.5,11.5,83,0.00,,,0.00,WeatherDisplay:10.37,2013-09-01 15:05:00,
2013-09-01 10:10:00,71.8,66.4,29.67,SSW,192,3.6,3.6,83,0.00,,,0.00,WeatherDisplay:10.37,2013-09-01 15:10:00,
2013-09-01 10:15:00,71.8,66.4,29.67,SW,217,1.4,6.0,83,0.00,,,0.00,WeatherDisplay:10.37,2013-09-01 15:15:00,
2013-09-01 10:20:00,71.8,66.4,29.67,WNW,282,1.2,2.0,83,0.00,,,0.00,WeatherDisplay:10.37,2013-09-01 15:20:00,
2013-09-01 10:25:00,72.3,66.5,29.67,West,261,0.9,3.5,82,0.00,,,0.00,WeatherDisplay:10.37,2013-09-01 15:25:00,
2013-09-01 10:30:00,72.8,67.0,29.66,South,190,3.0,8.1,82,0.00,,,0.00,WeatherDisplay:10.37,2013-09-01 15:30:00,
2013-09-01 10:35:00,73.2,67.4,29.66,SW,233,1.3,3.5,82,0.00,,,0.00,WeatherDisplay:10.37,2013-09-01 15:35:00,
2013-09-01 10:40:00,74.6,67.3,29.66,SSW,201,3.4,9.2,78,0.00,,,0.00,WeatherDisplay:10.37,2013-09-01 15:40:00,
2013-09-01 10:45:00,75.1,67.4,29.65,SSW,207,1.0,3.5,77,0.00,,,0.00,WeatherDisplay:10.37,2013-09-01 15:45:00,
2013-09-01 10:50:00,75.3,67.6,29.65,SSW,195,1.6,3.5,77,0.00,,,0.00,WeatherDisplay:10.37,2013-09-01 15:50:00,
2013-09-01 10:55:00,75.8,67.7,29.65,South,178,0.4,2.3,76,0.00,,,0.00,WeatherDisplay:10.37,2013-09-01 15:55:00,
2013-09-01 11:00:00,76.3,68.2,29.65,SSE,160,3.9,5.0,76,0.00,,,0.00,WeatherDisplay:10.37,2013-09-01 16:00:00,
2013-09-01 11:05:00,75.8,67.7,29.65,SW,221,1.6,12.0,76,0.00,,,0.00,WeatherDisplay:10.37,2013-09-01 16:05:00,
2013-09-01 11:10:00,75.1,67.4,29.65,West,262,6.0,13.8,77,0.00,,,0.00,WeatherDisplay:10.37,2013-09-01 16:10:00,
2013-09-01 11:15:00,74.4,67.5,29.65,WSW,252,0.6,10.4,79,0.00,,,0.00,WeatherDisplay:10.37,2013-09-01 16:15:00,
2013-09-01 11:20:00,74.0,67.4,29.65,WSW,247,0.5,5.8,80,0.00,,,0.00,WeatherDisplay:10.37,2013-09-01 16:20:00,
2013-09-01 11:25:00,74.0,67.8,29.65,SSE,158,3.8,11.5,81,0.00,,,0.00,WeatherDisplay:10.37,2013-09-01 16:25:00,
2013-09-01 11:30:00,74.7,67.8,29.65,West,272,1.3,5.8,79,0.00,,,0.00,WeatherDisplay:10.37,2013-09-01 16:30:00,
2013-09-01 11:35:00,75.1,67.8,29.65,SW,223,3.5,10.4,78,0.00,,,0.00,WeatherDisplay:10.37,2013-09-01 16:35:00,
2013-09-01 11:40:00,75.3,68.3,29.65,SSW,209,0.7,3.5,79,0.00,,,0.00,WeatherDisplay:10.37,2013-09-01 16:40:00,
2013-09-01 11:45:00,75.8,68.4,29.65,SSW,207,0.4,2.3,78,0.00,,,0.00,WeatherDisplay:10.37,2013-09-01 16:45:00,
2013-09-01 11:50:00,75.6,68.3,29.65,NW,310,0.7,2.3,78,0.00,,,0.00,WeatherDisplay:10.37,2013-09-01 16:50:00,
2013-09-01 11:55:00,75.4,68.4,29.65,NW,312,1.5,8.1,79,0.00,,,0.00,WeatherDisplay:10.37,2013-09-01 16:55:00,
2013-09-01 12:00:00,75.6,68.6,29.64,SSW,205,3.0,3.0,79,0.00,,,0.00,WeatherDisplay:10.37,2013-09-01 17:00:00,
2013-09-01 12:05:00,76.5,69.1,29.64,SW,224,3.0,3.5,78,0.00,,,0.00,WeatherDisplay:10.37,2013-09-01 17:05:00,
2013-09-01 12:10:00,77.0,68.9,29.64,WSW,254,1.0,3.5,76,0.00,,,0.00,WeatherDisplay:10.37,2013-09-01 17:10:00,
2013-09-01 12:15:00,77.0,68.9,29.63,NW,308,2.1,5.8,76,0.00,,,0.00,WeatherDisplay:10.37,2013-09-01 17:15:00,
2013-09-01 12:20:00,76.8,68.7,29.64,WNW,284,1.9,6.9,76,0.00,,,0.00,WeatherDisplay:10.37,2013-09-01 17:20:00,
2013-09-01 12:25:00,77.6,69.0,29.64,WNW,283,0.4,2.3,75,0.00,,,0.00,WeatherDisplay:10.37,2013-09-01 17:25:00,
2013-09-01 12:30:00,78.1,68.7,29.63,WSW,251,1.1,3.5,73,0.00,,,0.00,WeatherDisplay:10.37,2013-09-01 17:30:00,
2013-09-01 12:35:00,77.9,68.5,29.63,SSW,196,0.7,3.5,73,0.00,,,0.00,WeatherDisplay:10.37,2013-09-01 17:35:00,
2013-09-01 12:40:00,78.1,69.1,29.63,SE,140,0.8,2.0,74,0.00,,,0.00,WeatherDisplay:10.37,2013-09-01 17:40:00,
2013-09-01 12:45:00,78.1,68.7,29.63,NNE,14,0.7,5.8,73,0.00,,,0.00,WeatherDisplay:10.37,2013-09-01 17:45:00,
2013-09-01 12:50:00,78.3,68.9,29.63,West,268,3.6,4.6,73,0.00,,,0.00,WeatherDisplay:10.37,2013-09-01 17:50:00,
2013-09-01 12:55:00,78.5,69.1,29.63,WNW,292,0.9,5.8,73,0.00,,,0.00,WeatherDisplay:10.37,2013-09-01 17:55:00,
2013-09-01 13:00:00,79.4,69.6,29.63,SSW,206,0.9,3.5,72,0.00,,,0.00,WeatherDisplay:10.37,2013-09-01 18:00:00,
2013-09-01 13:05:00,80.5,69.0,29.63,SSW,212,1.4,5.8,68,0.00,,,0.00,WeatherDisplay:10.37,2013-09-01 18:05:00,
2013-09-01 13:10:00,80.5,69.4,29.62,WSW,247,3.0,5.8,69,0.00,,,0.00,WeatherDisplay:10.37,2013-09-01 18:10:00,
2013-09-01 13:15:00,80.9,69.3,29.62,West,271,1.0,3.5,68,0.00,,,0.00,WeatherDisplay:10.37,2013-09-01 18:15:00,
2013-09-01 13:20:00,80.7,69.6,29.61,West,263,1.3,3.5,69,0.00,,,0.00,WeatherDisplay:10.37,2013-09-01 18:20:00,
2013-09-01 13:25:00,81.2,69.2,29.61,SW,221,3.9,6.9,67,0.00,,,0.00,WeatherDisplay:10.37,2013-09-01 18:25:00,
2013-09-01 13:30:00,82.8,69.4,29.61,South,180,0.4,3.5,64,0.00,,,0.00,WeatherDisplay:10.37,2013-09-01 18:30:00,
2013-09-01 13:35:00,83.4,68.5,29.61,South,179,1.9,2.3,61,0.00,,,0.00,WeatherDisplay:10.37,2013-09-01 18:35:00,
2013-09-01 13:40:00,83.0,68.2,29.60,SSW,192,6.0,6.9,61,0.00,,,0.00,WeatherDisplay:10.37,2013-09-01 18:40:00,
2013-09-01 13:45:00,83.0,68.6,29.60,West,260,4.1,6.9,62,0.00,,,0.00,WeatherDisplay:10.37,2013-09-01 18:45:00,
2013-09-01 13:50:00,83.0,68.2,29.60,South,178,2.2,6.9,61,0.00,,,0.00,WeatherDisplay:10.37,2013-09-01 18:50:00,
2013-09-01 13:55:00,83.2,68.3,29.60,West,262,4.3,11.5,61,0.00,,,0.00,WeatherDisplay:10.37,2013-09-01 18:55:00,
2013-09-01 14:00:00,84.0,69.1,29.59,WSW,253,3.7,10.4,61,0.00,,,0.00,WeatherDisplay:10.37,2013-09-01 19:00:00,
2013-09-01 14:05:00,84.1,67.7,29.59,NW,306,3.0,8.1,58,0.00,,,0.00,WeatherDisplay:10.37,2013-09-01 19:05:00,
2013-09-01 14:10:00,83.8,68.4,29.59,SW,224,2.2,10.4,60,0.00,,,0.00,WeatherDisplay:10.37,2013-09-01 19:10:00,
2013-09-01 14:15:00,84.1,68.2,29.59,SW,216,2.0,9.2,59,0.00,,,0.00,WeatherDisplay:10.37,2013-09-01 19:15:00,
2013-09-01 14:20:00,85.3,68.3,29.59,West,280,0.8,2.3,57,0.00,,,0.00,WeatherDisplay:10.37,2013-09-01 19:20:00,
2013-09-01 14:25:00,85.9,68.4,29.59,West,270,2.2,4.6,56,0.00,,,0.00,WeatherDisplay:10.37,2013-09-01 19:25:00,
2013-09-01 14:30:00,85.1,67.6,29.59,SW,223,3.5,11.5,56,0.00,,,0.00,WeatherDisplay:10.37,2013-09-01 19:30:00,
2013-09-01 14:35:00,84.5,67.1,29.60,South,187,3.3,11.5,56,0.00,,,0.00,WeatherDisplay:10.37,2013-09-01 19:35:00,
2013-09-01 14:40:00,84.5,67.1,29.60,NW,308,1.1,6.9,56,0.00,,,0.00,WeatherDisplay:10.37,2013-09-01 19:40:00,
2013-09-01 14:45:00,84.9,67.5,29.59,SW,234,1.9,4.6,56,0.00,,,0.00,WeatherDisplay:10.37,2013-09-01 19:45:00,
2013-09-01 14:50:00,85.3,66.8,29.59,South,183,2.2,10.4,54,0.00,,,0.00,WeatherDisplay:10.37,2013-09-01 19:50:00,
2013-09-01 14:55:00,84.3,66.9,29.59,SSW,202,2.5,5.8,56,0.00,,,0.00,WeatherDisplay:10.37,2013-09-01 19:55:00,
2013-09-01 15:00:00,83.4,66.6,29.59,SSW,199,5.6,11.5,57,0.00,,,0.00,WeatherDisplay:10.37,2013-09-01 20:00:00,
2013-09-01 15:05:00,84.0,67.6,29.59,NW,307,1.8,1.8,58,0.00,,,0.00,WeatherDisplay:10.37,2013-09-01 20:05:00,
2013-09-01 15:10:00,84.7,67.8,29.59,NNE,12,1.5,3.5,57,0.00,,,0.00,WeatherDisplay:10.37,2013-09-01 20:10:00,
2013-09-01 15:15:00,84.3,68.9,29.59,WSW,251,0.6,1.2,60,0.00,,,0.00,WeatherDisplay:10.37,2013-09-01 20:15:00,
2013-09-01 15:20:00,83.8,67.9,29.59,WSW,251,0.0,2.3,59,0.00,,,0.00,WeatherDisplay:10.37,2013-09-01 20:20:00,
2013-09-01 15:25:00,84.5,68.6,29.58,SSW,204,0.6,3.5,59,0.00,,,0.00,WeatherDisplay:10.37,2013-09-01 20:25:00,
2013-09-01 15:30:00,84.9,68.5,29.58,SSE,157,0.2,9.0,58,0.00,,,0.00,WeatherDisplay:10.37,2013-09-01 20:30:00,
2013-09-01 15:35:00,84.9,68.0,29.58,South,181,5.0,9.0,57,0.00,,,0.00,WeatherDisplay:10.37,2013-09-01 20:35:00,
2013-09-01 15:40:00,83.6,68.2,29.58,SSW,200,6.3,9.2,60,0.00,,,0.00,WeatherDisplay:10.37,2013-09-01 20:40:00,
2013-09-01 15:45:00,83.4,67.6,29.58,NE,40,2.1,6.9,59,0.00,,,0.00,WeatherDisplay:10.37,2013-09-01 20:45:00,
2013-09-01 15:50:00,83.8,67.4,29.58,WNW,285,2.7,8.1,58,0.00,,,0.00,WeatherDisplay:10.37,2013-09-01 20:50:00,
2013-09-01 15:55:00,84.0,67.6,29.58,NNW,330,1.2,5.8,58,0.00,,,0.00,WeatherDisplay:10.37,2013-09-01 20:55:00,
2013-09-01 16:00:00,84.0,68.1,29.58,SW,233,2.1,6.9,59,0.00,,,0.00,WeatherDisplay:10.37,2013-09-01 21:00:00,
2013-09-01 16:05:00,84.0,68.1,29.58,WNW,293,1.1,2.3,59,0.00,,,0.00,WeatherDisplay:10.37,2013-09-01 21:05:00,
2013-09-01 16:10:00,83.6,67.8,29.58,SW,232,0.5,3.5,59,0.00,,,0.00,WeatherDisplay:10.37,2013-09-01 21:10:00,
2013-09-01 16:15:00,83.6,67.8,29.59,SW,230,4.2,9.2,59,0.00,,,0.00,WeatherDisplay:10.37,2013-09-01 21:15:00,
2013-09-01 16:20:00,83.0,69.1,29.59,NNW,346,1.8,3.5,63,0.00,,,0.00,WeatherDisplay:10.37,2013-09-01 21:20:00,
2013-09-01 16:25:00,79.4,65.7,29.60,NW,307,3.6,10.4,63,0.00,,,0.00,WeatherDisplay:10.37,2013-09-01 21:25:00,
2013-09-01 16:30:00,76.7,64.5,29.61,WNW,301,2.8,5.8,66,0.00,,,0.00,WeatherDisplay:10.37,2013-09-01 21:30:00,
2013-09-01 16:35:00,74.6,63.3,29.63,NW,308,3.4,16.1,68,0.01,RA,,0.02,WeatherDisplay:10.37,2013-09-01 21:35:00,
2013-09-01 16:40:00,71.6,66.5,29.64,WNW,296,3.1,13.8,84,0.12,RA,,0.16,WeatherDisplay:10.37,2013-09-01 21:40:00,
2013-09-01 16:45:00,69.1,65.4,29.64,NNW,343,2.2,5.0,88,0.27,RA,,0.30,WeatherDisplay:10.37,2013-09-01 21:45:00,
2013-09-01 16:50:00,68.1,65.1,29.64,West,277,1.9,9.0,90,0.38,RA,,0.39,WeatherDisplay:10.37,2013-09-01 21:50:00,
2013-09-01 16:56:00,67.8,65.4,29.64,NNE,12,5.0,6.9,92,0.46,RA,,0.47,WeatherDisplay:10.37,2013-09-01 21:56:00,
2013-09-01 17:01:00,67.6,65.5,29.64,NW,308,4.9,16.1,93,0.55,RA,,0.56,WeatherDisplay:10.37,2013-09-01 22:01:00,
2013-09-01 17:06:00,66.9,64.8,29.64,WNW,301,1.1,5.8,93,0.67,RA,,0.69,WeatherDisplay:10.37,2013-09-01 22:06:00,
2013-09-01 17:11:00,67.3,65.5,29.62,SSW,208,1.3,4.6,94,0.75,RA,,0.75,WeatherDisplay:10.37,2013-09-01 22:11:00,
2013-09-01 17:16:00,67.3,65.5,29.62,SSE,164,0.0,1.2,94,0.78,RA,,0.78,WeatherDisplay:10.37,2013-09-01 22:16:00,
2013-09-01 17:21:00,67.8,66.3,29.62,SSE,164,0.4,2.3,95,0.78,RA,,0.78,WeatherDisplay:10.37,2013-09-01 22:21:00,
2013-09-01 17:26:00,68.6,67.1,29.61,SW,214,0.5,2.3,95,0.78,,,0.78,WeatherDisplay:10.37,2013-09-01 22:26:00,
2013-09-01 17:31:00,69.4,67.9,29.61,SW,214,0.0,0.0,95,0.78,,,0.78,WeatherDisplay:10.37,2013-09-01 22:31:00,
2013-09-01 17:36:00,69.9,68.4,29.62,SW,214,0.2,0.0,95,0.77,,,0.78,WeatherDisplay:10.37,2013-09-01 22:36:00,
2013-09-01 17:41:00,69.9,68.4,29.63,SSW,211,0.2,2.0,95,0.66,,,0.78,WeatherDisplay:10.37,2013-09-01 22:41:00,
2013-09-01 17:46:00,70.6,69.1,29.64,SSW,211,0.0,1.0,95,0.51,,,0.78,WeatherDisplay:10.37,2013-09-01 22:46:00,
2013-09-01 17:51:00,71.6,70.1,29.63,SSW,211,0.0,0.0,95,0.40,,,0.78,WeatherDisplay:10.37,2013-09-01 22:51:00,
2013-09-01 18:17:00,73.0,71.2,29.63,SSW,211,0.1,1.2,94,0.00,,,0.78,WeatherDisplay:10.37,2013-09-01 23:17:00,
2013-09-01 18:22:00,73.2,71.4,29.63,SSW,211,0.0,1.2,94,0.00,,,0.78,WeatherDisplay:10.37,2013-09-01 23:22:00,
2013-09-01 18:27:00,73.0,70.9,29.64,SSW,211,0.0,0.0,93,0.00,,,0.78,WeatherDisplay:10.37,2013-09-01 23:27:00,
2013-09-01 18:32:00,72.5,70.0,29.64,SSW,211,0.0,1.2,92,0.00,,,0.78,WeatherDisplay:10.37,2013-09-01 23:32:00,
2013-09-01 18:37:00,72.0,69.5,29.64,SSW,211,0.1,1.2,92,0.00,,,0.78,WeatherDisplay:10.37,2013-09-01 23:37:00,
2013-09-01 18:42:00,71.8,69.3,29.64,SSW,211,0.1,1.2,92,0.00,,,0.78,WeatherDisplay:10.37,2013-09-01 23:42:00,
2013-09-01 18:47:00,71.8,69.3,29.64,SSW,211,0.0,0.0,92,0.00,,,0.78,WeatherDisplay:10.37,2013-09-01 23:47:00,
2013-09-01 18:52:00,71.5,68.7,29.64,SSW,211,0.0,0.0,91,0.00,,,0.78,WeatherDisplay:10.37,2013-09-01 23:52:00,
2013-09-01 18:57:00,71.3,68.5,29.64,SSW,211,0.0,0.0,91,0.00,,,0.78,WeatherDisplay:10.37,2013-09-01 23:57:00,
2013-09-01 19:02:00,71.6,69.2,29.64,SSW,211,0.0,0.0,92,0.00,,,0.78,WeatherDisplay:10.37,2013-09-02 00:02:00,
2013-09-01 19:07:00,72.0,69.2,29.64,SSW,211,0.0,0.0,91,0.00,,,0.78,WeatherDisplay:10.37,2013-09-02 00:07:00,
2013-09-01 19:12:00,72.0,68.9,29.64,SSW,211,0.0,0.0,90,0.00,,,0.78,WeatherDisplay:10.37,2013-09-02 00:12:00,
2013-09-01 19:17:00,71.6,68.5,29.64,SSW,211,0.0,0.0,90,0.00,,,0.78,WeatherDisplay:10.37,2013-09-02 00:17:00,
2013-09-01 19:22:00,71.3,68.2,29.64,SSW,211,0.0,0.0,90,0.00,,,0.78,WeatherDisplay:10.37,2013-09-02 00:22:00,
2013-09-01 19:27:00,70.9,68.1,29.65,SSW,211,0.0,0.0,91,0.00,,,0.78,WeatherDisplay:10.37,2013-09-02 00:27:00,
2013-09-01 19:32:00,70.6,67.5,29.65,SSW,211,0.3,2.3,90,0.00,,,0.78,WeatherDisplay:10.37,2013-09-02 00:32:00,
2013-09-01 19:37:00,70.1,66.4,29.65,NW,325,0.1,1.2,88,0.00,,,0.78,WeatherDisplay:10.37,2013-09-02 00:37:00,
2013-09-01 19:42:00,69.4,65.7,29.65,WNW,296,0.0,0.0,88,0.00,,,0.78,WeatherDisplay:10.37,2013-09-02 00:42:00,
2013-09-01 19:47:00,68.9,64.9,29.65,WNW,296,1.7,3.5,87,0.00,,,0.78,WeatherDisplay:10.37,2013-09-02 00:47:00,
2013-09-01 19:52:00,68.6,64.6,29.65,NW,313,0.8,3.5,87,0.00,,,0.78,WeatherDisplay:10.37,2013-09-02 00:52:00,
2013-09-01 19:57:00,68.3,63.6,29.66,NW,307,1.3,3.5,85,0.00,,,0.78,WeatherDisplay:10.37,2013-09-02 00:57:00,
2013-09-01 20:02:00,68.3,63.3,29.66,WNW,303,0.5,3.5,84,0.00,,,0.78,WeatherDisplay:10.37,2013-09-02 01:02:00,
2013-09-01 20:07:00,68.3,63.3,29.67,NW,317,0.3,3.0,84,0.00,,,0.78,WeatherDisplay:10.37,2013-09-02 01:07:00,
2013-09-01 20:12:00,68.1,63.1,29.67,NW,309,0.2,2.3,84,0.00,,,0.78,WeatherDisplay:10.37,2013-09-02 01:12:00,
2013-09-01 20:17:00,67.9,63.2,29.67,WNW,303,0.5,1.2,85,0.00,,,0.78,WeatherDisplay:10.37,2013-09-02 01:17:00,
2013-09-01 20:22:00,67.8,63.1,29.67,NW,307,0.5,3.5,85,0.00,,,0.78,WeatherDisplay:10.37,2013-09-02 01:22:00,
2013-09-01 20:27:00,67.6,62.9,29.67,NW,307,0.7,3.5,85,0.00,,,0.78,WeatherDisplay:10.37,2013-09-02 01:27:00,
2013-09-01 20:32:00,67.6,62.9,29.67,NW,304,0.1,2.3,85,0.00,,,0.78,WeatherDisplay:10.37,2013-09-02 01:32:00,
2013-09-01 20:37:00,67.6,62.9,29.68,NW,304,0.2,1.2,85,0.00,,,0.78,WeatherDisplay:10.37,2013-09-02 01:37:00,
2013-09-01 20:42:00,67.4,63.1,29.68,NW,304,0.0,0.0,86,0.00,,,0.78,WeatherDisplay:10.37,2013-09-02 01:42:00,
2013-09-01 20:47:00,67.1,62.8,29.68,NW,304,0.0,0.0,86,0.00,,,0.78,WeatherDisplay:10.37,2013-09-02 01:47:00,
2013-09-01 20:52:00,66.8,62.8,29.68,NW,304,0.0,0.0,87,0.00,,,0.78,WeatherDisplay:10.37,2013-09-02 01:52:00,
2013-09-01 20:57:00,66.4,62.7,29.68,NW,304,0.0,2.3,88,0.00,,,0.78,WeatherDisplay:10.37,2013-09-02 01:57:00,
2013-09-01 21:02:00,66.3,62.6,29.68,NW,304,0.0,0.0,88,0.00,,,0.78,WeatherDisplay:10.37,2013-09-02 02:02:00,
2013-09-01 21:07:00,66.3,62.3,29.69,NW,304,0.2,1.2,87,0.00,,,0.78,WeatherDisplay:10.37,2013-09-02 02:07:00,
2013-09-01 21:12:00,66.1,62.1,29.68,NW,304,0.4,2.3,87,0.00,,,0.78,WeatherDisplay:10.37,2013-09-02 02:12:00,
2013-09-01 21:17:00,66.0,62.0,29.68,NW,304,0.1,2.3,87,0.00,,,0.78,WeatherDisplay:10.37,2013-09-02 02:17:00,
2013-09-01 21:22:00,66.0,61.7,29.68,West,280,0.6,2.3,86,0.00,,,0.78,WeatherDisplay:10.37,2013-09-02 02:22:00,
2013-09-01 21:27:00,66.0,61.7,29.68,NW,304,0.0,0.0,86,0.00,,,0.78,WeatherDisplay:10.37,2013-09-02 02:27:00,
2013-09-01 21:32:00,66.1,61.5,29.68,NW,304,0.0,0.0,85,0.00,,,0.78,WeatherDisplay:10.37,2013-09-02 02:32:00,
2013-09-01 21:37:00,66.0,61.4,29.69,NW,304,0.0,0.0,85,0.00,,,0.78,WeatherDisplay:10.37,2013-09-02 02:37:00,
2013-09-01 21:42:00,65.6,61.3,29.69,NW,304,0.0,0.0,86,0.00,,,0.78,WeatherDisplay:10.37,2013-09-02 02:42:00,
2013-09-01 21:47:00,65.3,61.0,29.70,NW,304,0.0,0.0,86,0.00,,,0.78,WeatherDisplay:10.37,2013-09-02 02:47:00,
2013-09-01 21:52:00,65.3,61.7,29.70,NW,304,0.0,0.0,88,0.00,,,0.78,WeatherDisplay:10.37,2013-09-02 02:52:00,
2013-09-01 21:57:00,65.5,61.9,29.70,NW,304,0.0,0.0,88,0.00,,,0.78,WeatherDisplay:10.37,2013-09-02 02:57:00,
2013-09-01 22:02:00,65.2,61.6,29.70,NW,304,0.0,0.0,88,0.00,,,0.78,WeatherDisplay:10.37,2013-09-02 03:02:00,
2013-09-01 22:07:00,64.7,61.1,29.70,NW,304,0.0,0.0,88,0.00,,,0.78,WeatherDisplay:10.37,2013-09-02 03:07:00,
2013-09-01 22:12:00,64.2,60.6,29.70,NW,304,0.0,0.0,88,0.00,,,0.78,WeatherDisplay:10.37,2013-09-02 03:12:00,
2013-09-01 22:17:00,63.9,60.6,29.70,NW,304,0.0,0.0,89,0.00,,,0.78,WeatherDisplay:10.37,2013-09-02 03:17:00,
2013-09-01 22:22:00,63.7,60.4,29.70,NW,304,0.0,0.0,89,0.00,,,0.78,WeatherDisplay:10.37,2013-09-02 03:22:00,
2013-09-01 22:27:00,63.4,60.4,29.70,NW,304,0.0,0.0,90,0.00,,,0.78,WeatherDisplay:10.37,2013-09-02 03:27:00,
2013-09-01 22:32:00,63.2,60.2,29.70,NW,304,0.0,0.0,90,0.00,,,0.78,WeatherDisplay:10.37,2013-09-02 03:32:00,
2013-09-01 22:37:00,63.1,60.1,29.71,NW,304,0.0,0.0,90,0.00,,,0.78,WeatherDisplay:10.37,2013-09-02 03:37:00,
2013-09-01 22:42:00,62.7,59.7,29.71,NW,304,0.0,0.0,90,0.00,,,0.78,WeatherDisplay:10.37,2013-09-02 03:42:00,
2013-09-01 22:47:00,62.4,59.7,29.71,NW,304,0.0,0.0,91,0.00,,,0.78,WeatherDisplay:10.37,2013-09-02 03:47:00,
2013-09-01 22:52:00,62.3,59.6,29.71,NW,304,0.0,0.0,91,0.00,,,0.78,WeatherDisplay:10.37,2013-09-02 03:52:00,
2013-09-01 22:57:00,62.1,59.7,29.71,NW,304,0.0,0.0,92,0.00,,,0.78,WeatherDisplay:10.37,2013-09-02 03:57:00,
2013-09-01 23:01:00,62.0,59.6,29.71,NW,304,0.0,0.0,92,0.00,,,0.78,WeatherDisplay:10.37,2013-09-02 04:01:00,
2013-09-01 23:06:00,61.8,59.5,29.71,NW,304,0.0,0.0,92,0.00,,,0.78,WeatherDisplay:10.37,2013-09-02 04:06:00,
2013-09-01 23:11:00,61.5,59.2,29.71,NW,304,0.0,0.0,92,0.00,,,0.78,WeatherDisplay:10.37,2013-09-02 04:11:00,
2013-09-01 23:16:00,61.6,59.6,29.71,NW,304,0.0,0.0,93,0.00,,,0.78,WeatherDisplay:10.37,2013-09-02 04:16:00,
2013-09-01 23:21:00,61.6,59.6,29.71,NW,304,0.0,0.0,93,0.00,,,0.78,WeatherDisplay:10.37,2013-09-02 04:21:00,
2013-09-01 23:26:00,61.3,59.3,29.71,NW,304,0.0,0.0,93,0.00,,,0.78,WeatherDisplay:10.37,2013-09-02 04:26:00,
2013-09-01 23:31:00,61.2,59.2,29.71,NW,304,0.0,1.2,93,0.00,,,0.78,WeatherDisplay:10.37,2013-09-02 04:31:00,
2013-09-01 23:36:00,61.0,59.0,29.71,NW,304,0.0,0.0,93,0.00,,,0.78,WeatherDisplay:10.37,2013-09-02 04:36:00,
2013-09-01 23:41:00,60.7,58.7,29.71,NW,304,0.0,0.0,93,0.00,,,0.78,WeatherDisplay:10.37,2013-09-02 04:41:00,
2013-09-01 23:46:00,60.7,58.7,29.71,NW,304,0.0,0.0,93,0.00,,,0.78,WeatherDisplay:10.37,2013-09-02 04:46:00,
2013-09-01 23:51:00,60.7,58.7,29.71,NW,304,0.0,0.0,93,0.00,,,0.78,WeatherDisplay:10.37,2013-09-02 04:51:00,
2013-09-01 23:56:00,60.5,58.5,29.71,NW,304,0.0,0.0,93,0.00,,,0.78,WeatherDisplay:10.37,2013-09-02 04:56:00,